Find OPS 6630 P/L 2

NORAD ID: 6938 Int'l Des: 1973-088 Owner: NRO/SAFSP Country: US operational
LEOCIRCULARRETROGRADE

Current View

Loading 3D Globe...

About OPS 6630 P/L 2

OPS 6630 P/L 2 (NORAD 6938) is a satellite by NRO/SAFSP of US. It operates in LEO, CIRCULAR, RETROGRADE orbit

Upcoming Passes

Passes for default location (London). Set your location on the main map for personalized predictions.

Altitude History

Loading altitude history...

Two-Line Element Set

1 06938U 73088D 26202.10687681 -.00000023 00000-0 -26825-4 0 9995
2 06938 96.9407 256.4525 0025242 305.4571 82.7752 12.57202686417408
Epoch: Jul 21, 2026 • Age: 9 hours

Current Status

Altitude 1447.2 km
Apogee / Perigee N/A
Velocity 7.15 km/s
Sub-Earth Point -82.63°S, 104.14°W
Type other

Most Searched